| time (UTC) | temp C | wind direction | speed KPH | gust KPH | rain 1hr cm | rain 24hr cm | rain mn cm | humidity % | barometer mb |
| 20260510075557 | 11 | 40 | 0.0 | 3.2 | 0.00 | 0.43 | 0.00 | 77 | 1011.8 |
| 20260510075057 | 11 | 40 | 0.0 | 3.2 | 0.00 | 0.43 | 0.00 | 77 | 1011.7 |
| 20260510074520 | 11 | 40 | 0.0 | 4.8 | 0.00 | 0.43 | 0.00 | 77 | 1011.7 |
| 20260510074057 | 11 | 42 | 0.0 | 4.8 | 0.00 | 0.43 | 0.00 | 77 | 1011.8 |
| 20260510073557 | 11 | 344 | 1.6 | 8.0 | 0.00 | 0.43 | 0.00 | 77 | 1011.9 |
| 20260510073001 | 11 | 321 | 4.8 | 8.0 | 0.00 | 0.43 | 0.00 | 77 | 1011.9 |
| 20260510072506 | 11 | 348 | 1.6 | 6.4 | 0.00 | 0.43 | 0.00 | 77 | 1011.8 |
| 20260510072013 | 11 | 328 | 0.0 | 4.8 | 0.00 | 0.43 | 0.00 | 77 | 1011.8 |
| 20260510071553 | 11 | 313 | 0.0 | 4.8 | 0.00 | 0.43 | 0.00 | 77 | 1011.8 |
| 20260510071056 | 11 | 313 | 0.0 | 6.4 | 0.00 | 0.43 | 0.00 | 77 | 1012.0 |
| 20260510070518 | 11 | 303 | 1.6 | 6.4 | 0.00 | 0.43 | 0.00 | 77 | 1011.9 |
| 20260510070106 | 11 | 138 | 1.6 | 4.8 | 0.00 | 0.43 | 0.00 | 77 | 1011.8 |
| 20260510065600 | 11 | 138 | 1.6 | 3.2 | 0.00 | 0.43 | 0.00 | 77 | 1011.5 |
| 20260510065009 | 11 | 138 | 1.6 | 3.2 | 0.00 | 0.43 | 0.00 | 77 | 1011.4 |
| 20260510064524 | 11 | 138 | 0.0 | 1.6 | 0.00 | 0.43 | 0.00 | 77 | 1011.4 |
| 20260510064012 | 11 | 138 | 0.0 | 1.6 | 0.00 | 0.43 | 0.00 | 77 | 1011.3 |
| 20260510063555 | 11 | 138 | 0.0 | 3.2 | 0.00 | 0.43 | 0.00 | 77 | 1011.3 |
| 20260510063058 | 11 | 138 | 0.0 | 3.2 | 0.00 | 0.43 | 0.00 | 77 | 1011.3 |
| 20260510062517 | 11 | 138 | 0.0 | 3.2 | 0.00 | 0.43 | 0.00 | 77 | 1011.3 |
| 20260510062054 | 11 | 138 | 0.0 | 4.8 | 0.00 | 0.43 | 0.00 | 76 | 1011.3 |
| 20260510061559 | 11 | 138 | 0.0 | 4.8 | 0.00 | 0.43 | 0.00 | 76 | 1011.3 |
| 20260510061002 | 11 | 138 | 0.0 | 0.0 | 0.00 | 0.43 | 0.00 | 76 | 1011.3 |
| 20260510060507 | 11 | 138 | 0.0 | 0.0 | 0.00 | 0.43 | 0.00 | 76 | 1011.4 |
| 20260510060052 | 11 | 138 | 0.0 | 0.0 | 0.00 | 0.43 | 0.00 | 76 | 1011.4 |
| 20260510055557 | 11 | 138 | 0.0 | 0.0 | 0.00 | 0.43 | 0.00 | 76 | 1011.3 |
| 20260510055059 | 11 | 138 | 0.0 | 0.0 | 0.00 | 0.43 | 0.00 | 76 | 1011.5 |
| 20260510054503 | 11 | 138 | 0.0 | 1.6 | 0.00 | 0.43 | 0.00 | 76 | 1011.4 |
| 20260510054008 | 11 | 138 | 0.0 | 1.6 | 0.00 | 0.43 | 0.00 | 76 | 1011.4 |
| 20260510053515 | 11 | 138 | 0.0 | 1.6 | 0.00 | 0.43 | 0.00 | 76 | 1011.5 |
| 20260510053054 | 11 | 138 | 0.0 | 1.6 | 0.00 | 0.43 | 0.00 | 76 | 1011.6 |
| 20260510052558 | 11 | 138 | 0.0 | 1.6 | 0.00 | 0.43 | 0.00 | 76 | 1011.8 |
| 20260510052018 | 11 | 138 | 0.0 | 1.6 | 0.00 | 0.43 | 0.00 | 76 | 1011.7 |
| 20260510051558 | 11 | 138 | 0.0 | 1.6 | 0.00 | 0.43 | 0.00 | 76 | 1011.7 |
| 20260510051103 | 11 | 138 | 0.0 | 3.2 | 0.00 | 0.43 | 0.00 | 75 | 1011.7 |
| 20260510050505 | 11 | 138 | 0.0 | 3.2 | 0.00 | 0.43 | 0.00 | 75 | 1011.8 |
| 20260510050014 | 11 | 138 | 0.0 | 6.4 | 0.00 | 0.43 | 0.00 | 75 | 1011.9 |
| 20260510045557 | 11 | 138 | 1.6 | 6.4 | 0.00 | 0.43 | 0.00 | 75 | 1011.9 |
| 20260510045056 | 11 | 138 | 0.0 | 4.8 | 0.00 | 0.43 | 0.00 | 75 | 1011.7 |
| 20260510044612 | 11 | 138 | 0.0 | 3.2 | 0.00 | 0.43 | 0.00 | 75 | 1011.8 |
| 20260510044003 | 11 | 138 | 0.0 | 3.2 | 0.00 | 0.43 | 0.00 | 75 | 1011.6 |
| 20260510043505 | 11 | 138 | 0.0 | 3.2 | 0.00 | 0.43 | 0.00 | 75 | 1011.7 |
| 20260510043011 | 11 | 138 | 0.0 | 3.2 | 0.03 | 0.43 | 0.00 | 75 | 1011.8 |
| 20260510042554 | 11 | 138 | 0.0 | 3.2 | 0.03 | 0.43 | 0.00 | 75 | 1011.8 |
| 20260510042056 | 11 | 138 | 0.0 | 0.0 | 0.03 | 0.43 | 0.00 | 75 | 1011.7 |
| 20260510041600 | 11 | 138 | 0.0 | 0.0 | 0.03 | 0.43 | 0.00 | 75 | 1011.8 |
| 20260510041006 | 11 | 138 | 0.0 | 0.0 | 0.03 | 0.43 | 0.00 | 75 | 1011.7 |
| 20260510040512 | 11 | 138 | 0.0 | 0.0 | 0.03 | 0.43 | 0.00 | 75 | 1011.5 |
| 20260510040054 | 11 | 138 | 0.0 | 0.0 | 0.03 | 0.43 | 0.00 | 74 | 1011.5 |
| 20260510035556 | 11 | 138 | 0.0 | 3.2 | 0.03 | 0.43 | 0.43 | 74 | 1011.4 |
| 20260510035022 | 11 | 138 | 0.0 | 4.8 | 0.03 | 0.43 | 0.43 | 74 | 1011.4 |
| 20260510034615 | 11 | 138 | 0.0 | 4.8 | 0.03 | 0.43 | 0.43 | 74 | 1011.3 |
| 20260510034059 | 11 | 138 | 0.0 | 4.8 | 0.03 | 0.43 | 0.43 | 74 | 1011.2 |
| 20260510033501 | 11 | 138 | 0.0 | 6.4 | 0.03 | 0.43 | 0.43 | 74 | 1011.2 |
| 20260510033007 | 11 | 138 | 3.2 | 6.4 | 0.00 | 0.41 | 0.41 | 74 | 1011.2 |
| 20260510032508 | 11 | 67 | 0.0 | 4.8 | 0.00 | 0.41 | 0.41 | 74 | 1011.2 |
| 20260510032055 | 11 | 139 | 1.6 | 4.8 | 0.00 | 0.41 | 0.41 | 74 | 1011.2 |
| 20260510031523 | 11 | 80 | 1.6 | 3.2 | 0.00 | 0.41 | 0.41 | 73 | 1011.3 |
| 20260510031056 | 11 | 74 | 0.0 | 4.8 | 0.00 | 0.41 | 0.41 | 73 | 1011.3 |
| 20260510030519 | 11 | 71 | 0.0 | 4.8 | 0.00 | 0.41 | 0.41 | 73 | 1011.3 |
| 20260510030058 | 11 | 75 | 0.0 | 4.8 | 0.00 | 0.41 | 0.41 | 73 | 1011.4 |
| 20260510025559 | 11 | 124 | 1.6 | 4.8 | 0.00 | 0.41 | 0.41 | 73 | 1011.4 |
| 20260510025001 | 11 | 110 | 0.0 | 3.2 | 0.00 | 0.41 | 0.41 | 73 | 1011.3 |
| 20260510024506 | 11 | 110 | 1.6 | 3.2 | 0.00 | 0.41 | 0.41 | 73 | 1011.2 |
| 20260510024008 | 11 | 110 | 0.0 | 1.6 | 0.00 | 0.41 | 0.41 | 73 | 1011.3 |
| 20260510023553 | 11 | 110 | 0.0 | 4.8 | 0.00 | 0.41 | 0.41 | 73 | 1011.3 |
| 20260510023056 | 11 | 110 | 0.0 | 4.8 | 0.00 | 0.41 | 0.41 | 73 | 1011.3 |
| 20260510022603 | 11 | 103 | 1.6 | 6.4 | 0.00 | 0.41 | 0.41 | 73 | 1011.3 |
| 20260510022002 | 11 | 76 | 1.6 | 6.4 | 0.00 | 0.41 | 0.41 | 72 | 1011.3 |
| 20260510021511 | 11 | 229 | 0.0 | 4.8 | 0.00 | 0.41 | 0.41 | 72 | 1011.4 |
| 20260510021054 | 11 | 119 | 0.0 | 3.2 | 0.00 | 0.41 | 0.41 | 72 | 1011.4 |
| 20260510020558 | 11 | 119 | 1.6 | 4.8 | 0.00 | 0.41 | 0.41 | 72 | 1011.4 |
| 20260510020101 | 11 | 101 | 0.0 | 6.4 | 0.00 | 0.41 | 0.41 | 72 | 1011.3 |
| 20260510015504 | 11 | 112 | 3.2 | 6.4 | 0.00 | 0.41 | 0.41 | 72 | 1011.3 |
| 20260510015007 | 11 | 90 | 3.2 | 8.0 | 0.00 | 0.41 | 0.41 | 72 | 1011.3 |
| 20260510014512 | 11 | 128 | 3.2 | 11.3 | 0.00 | 0.41 | 0.41 | 71 | 1011.3 |
| 20260510014054 | 11 | 96 | 1.6 | 9.7 | 0.00 | 0.41 | 0.41 | 71 | 1011.1 |
| 20260510013600 | 11 | 96 | 3.2 | 6.4 | 0.00 | 0.41 | 0.41 | 71 | 1011.2 |
| 20260510013130 | 11 | 97 | 1.6 | 6.4 | 0.00 | 0.41 | 0.41 | 71 | 1011.3 |
| 20260510012504 | 11 | 94 | 1.6 | 9.7 | 0.00 | 0.41 | 0.41 | 71 | 1011.2 |
| 20260510012009 | 11 | 135 | 3.2 | 9.7 | 0.00 | 0.41 | 0.41 | 71 | 1011.1 |
| 20260510011555 | 11 | 111 | 3.2 | 11.3 | 0.00 | 0.41 | 0.41 | 71 | 1011.2 |
| 20260510011056 | 11 | 114 | 1.6 | 8.0 | 0.00 | 0.41 | 0.41 | 70 | 1011.1 |
| 20260510010559 | 11 | 113 | 3.2 | 8.0 | 0.00 | 0.41 | 0.41 | 70 | 1011.1 |
| 20260510010004 | 11 | 64 | 0.0 | 3.2 | 0.00 | 0.41 | 0.41 | 70 | 1011.0 |
| 20260510005506 | 12 | 5 | 0.0 | 0.0 | 0.00 | 0.41 | 0.41 | 70 | 1011.0 |
| 20260510005013 | 12 | 5 | 0.0 | 0.0 | 0.00 | 0.41 | 0.41 | 70 | 1011.1 |
| 20260510004553 | 12 | 5 | 0.0 | 0.0 | 0.00 | 0.41 | 0.41 | 70 | 1011.1 |
| 20260510004055 | 12 | 5 | 0.0 | 0.0 | 0.00 | 0.41 | 0.41 | 70 | 1011.0 |
| 20260510003502 | 12 | 5 | 0.0 | 0.0 | 0.00 | 0.41 | 0.41 | 70 | 1011.0 |
| 20260510003005 | 12 | 5 | 0.0 | 0.0 | 0.00 | 0.41 | 0.41 | 70 | 1010.9 |
| 20260510002553 | 12 | 5 | 0.0 | 0.0 | 0.00 | 0.41 | 0.41 | 70 | 1010.9 |
| 20260510002056 | 12 | 5 | 0.0 | 0.0 | 0.00 | 0.41 | 0.41 | 70 | 1010.9 |
| 20260510001520 | 12 | 5 | 0.0 | 0.0 | 0.00 | 0.41 | 0.41 | 70 | 1010.7 |
| 20260510001056 | 12 | 5 | 0.0 | 0.0 | 0.00 | 0.41 | 0.41 | 70 | 1010.7 |
| 20260510000558 | 12 | 5 | 0.0 | 1.6 | 0.00 | 0.41 | 0.41 | 70 | 1010.7 |
| 20260510000002 | 13 | 5 | 0.0 | 1.6 | 0.03 | 0.41 | 0.41 | 71 | 1010.5 |
| 20260509235504 | 13 | 5 | 0.0 | 3.2 | 0.05 | 0.41 | 0.41 | 71 | 1010.5 |
| 20260509235009 | 13 | 5 | 0.0 | 3.2 | 0.05 | 0.41 | 0.41 | 71 | 1010.5 |
| 20260509234551 | 13 | 5 | 0.0 | 3.2 | 0.05 | 0.41 | 0.41 | 71 | 1010.6 |
| 20260509234053 | 13 | 5 | 0.0 | 3.2 | 0.05 | 0.41 | 0.41 | 70 | 1010.7 |
| 20260509233519 | 13 | 5 | 1.6 | 3.2 | 0.08 | 0.41 | 0.41 | 70 | 1010.7 |
| 20260509233059 | 13 | 81 | 1.6 | 4.8 | 0.13 | 0.41 | 0.41 | 70 | 1010.4 |
| 20260509232503 | 13 | 82 | 1.6 | 3.2 | 0.20 | 0.41 | 0.41 | 70 | 1010.7 |
| 20260509232005 | 13 | 300 | 0.0 | 4.8 | 0.20 | 0.41 | 0.41 | 70 | 1011.0 |
| 20260509231510 | 13 | 207 | 0.0 | 6.4 | 0.20 | 0.41 | 0.41 | 70 | 1011.1 |
| 20260509231051 | 13 | 96 | 3.2 | 6.4 | 0.20 | 0.41 | 0.41 | 69 | 1010.8 |
| 20260509230554 | 13 | 126 | 0.0 | 6.4 | 0.20 | 0.41 | 0.41 | 69 | 1011.0 |
| 20260509230109 | 13 | 126 | 0.0 | 6.4 | 0.18 | 0.38 | 0.38 | 69 | 1011.2 |
| 20260509225502 | 13 | 234 | 3.2 | 11.3 | 0.15 | 0.36 | 0.36 | 69 | 1011.3 |
| 20260509225007 | 13 | 82 | 3.2 | 11.3 | 0.15 | 0.36 | 0.36 | 69 | 1010.9 |
| 20260509224512 | 13 | 123 | 1.6 | 6.4 | 0.15 | 0.36 | 0.36 | 69 | 1011.0 |
| 20260509224054 | 13 | 98 | 3.2 | 6.4 | 0.15 | 0.36 | 0.36 | 69 | 1011.0 |
| 20260509223516 | 13 | 331 | 1.6 | 11.3 | 0.13 | 0.33 | 0.33 | 69 | 1011.3 |
| 20260509223105 | 13 | 33 | 4.8 | 11.3 | 0.05 | 0.25 | 0.25 | 69 | 1011.9 |
| 20260509222500 | 13 | 166 | 1.6 | 4.8 | 0.00 | 0.20 | 0.20 | 69 | 1012.0 |
| 20260509222019 | 13 | 166 | 3.2 | 4.8 | 0.00 | 0.20 | 0.20 | 68 | 1011.4 |
| 20260509221609 | 13 | 92 | 1.6 | 4.8 | 0.00 | 0.20 | 0.20 | 68 | 1011.2 |
| 20260509221100 | 13 | 88 | 1.6 | 4.8 | 0.00 | 0.20 | 0.20 | 68 | 1011.1 |
| 20260509220502 | 13 | 258 | 0.0 | 6.4 | 0.00 | 0.20 | 0.20 | 68 | 1011.5 |
| 20260509220007 | 13 | 255 | 1.6 | 6.4 | 0.00 | 0.20 | 0.20 | 68 | 1011.5 |
| 20260509215515 | 13 | 168 | 3.2 | 9.7 | 0.00 | 0.20 | 0.20 | 68 | 1011.3 |
| 20260509215058 | 13 | 116 | 1.6 | 9.7 | 0.00 | 0.20 | 0.20 | 68 | 1011.3 |
| 20260509214603 | 13 | 137 | 1.6 | 4.8 | 0.00 | 0.20 | 0.20 | 68 | 1011.3 |
| 20260509214020 | 13 | 173 | 0.0 | 8.0 | 0.00 | 0.20 | 0.20 | 68 | 1011.4 |
| 20260509213556 | 13 | 82 | 1.6 | 8.0 | 0.00 | 0.20 | 0.20 | 68 | 1011.4 |
| 20260509213002 | 13 | 82 | 1.6 | 4.8 | 0.00 | 0.20 | 0.20 | 68 | 1011.6 |
| 20260509212056 | 13 | 186 | 4.8 | 9.7 | 0.00 | 0.20 | 0.20 | 68 | 1011.7 |
| 20260509211520 | 13 | 137 | 1.6 | 12.9 | 0.00 | 0.20 | 0.20 | 68 | 1011.6 |
| 20260509211056 | 13 | 125 | 4.8 | 12.9 | 0.00 | 0.20 | 0.20 | 68 | 1011.6 |
| 20260509210558 | 13 | 222 | 1.6 | 12.9 | 0.00 | 0.20 | 0.20 | 68 | 1011.7 |
| 20260509210005 | 13 | 287 | 3.2 | 12.9 | 0.00 | 0.20 | 0.20 | 68 | 1011.7 |
| 20260509205505 | 13 | 224 | 6.4 | 11.3 | 0.00 | 0.20 | 0.20 | 68 | 1011.7 |
| 20260509205009 | 13 | 192 | 1.6 | 12.9 | 0.00 | 0.20 | 0.20 | 68 | 1011.7 |
| 20260509204551 | 13 | 163 | 3.2 | 12.9 | 0.00 | 0.20 | 0.20 | 68 | 1011.7 |
| 20260509203502 | 13 | 136 | 1.6 | 19.3 | 0.00 | 0.20 | 0.20 | 67 | 1011.5 |
| 20260509203022 | 13 | 232 | 8.0 | 17.7 | 0.00 | 0.20 | 0.20 | 67 | 1011.6 |
| 20260509202509 | 13 | 183 | 9.7 | 17.7 | 0.00 | 0.20 | 0.20 | 67 | 1011.7 |
| 20260509202054 | 13 | 191 | 4.8 | 17.7 | 0.00 | 0.20 | 0.20 | 67 | 1011.5 |
| 20260509201556 | 13 | 202 | 8.0 | 22.5 | 0.00 | 0.20 | 0.20 | 67 | 1011.4 |
| 20260509201001 | 13 | 87 | 4.8 | 14.5 | 0.03 | 0.20 | 0.20 | 68 | 1011.6 |
| 20260509200508 | 13 | 94 | 3.2 | 16.1 | 0.03 | 0.20 | 0.20 | 68 | 1011.8 |
| 20260509200008 | 13 | 241 | 6.4 | 16.1 | 0.03 | 0.20 | 0.20 | 67 | 1011.5 |
| 20260509195513 | 13 | 88 | 3.2 | 12.9 | 0.05 | 0.20 | 0.20 | 67 | 1011.7 |
| 20260509195055 | 13 | 164 | 3.2 | 11.3 | 0.05 | 0.20 | 0.20 | 67 | 1011.7 |
| 20260509194519 | 13 | 107 | 4.8 | 11.3 | 0.08 | 0.20 | 0.20 | 67 | 1011.9 |
| 20260509194057 | 13 | 107 | 3.2 | 12.9 | 0.10 | 0.20 | 0.20 | 67 | 1011.8 |
| 20260509193600 | 13 | 83 | 4.8 | 17.7 | 0.10 | 0.20 | 0.20 | 67 | 1011.8 |
| 20260509193002 | 13 | 136 | 4.8 | 12.9 | 0.10 | 0.20 | 0.20 | 66 | 1011.8 |
| 20260509192507 | 13 | 119 | 3.2 | 11.3 | 0.10 | 0.20 | 0.20 | 66 | 1011.6 |
| 20260509192010 | 13 | 87 | 1.6 | 11.3 | 0.13 | 0.20 | 0.20 | 66 | 1011.5 |
| 20260509191555 | 13 | 122 | 3.2 | 8.0 | 0.13 | 0.20 | 0.20 | 66 | 1011.7 |
| 20260509191057 | 13 | 163 | 1.6 | 11.3 | 0.13 | 0.18 | 0.18 | 66 | 1011.8 |
| 20260509190517 | 13 | 183 | 1.6 | 8.0 | 0.15 | 0.18 | 0.18 | 65 | 1011.9 |
| 20260509190055 | 13 | 142 | 1.6 | 14.5 | 0.15 | 0.18 | 0.18 | 65 | 1012.0 |
| 20260509185557 | 13 | 211 | 4.8 | 14.5 | 0.13 | 0.15 | 0.15 | 64 | 1012.0 |
| 20260509185001 | 13 | 118 | 1.6 | 14.5 | 0.10 | 0.13 | 0.13 | 64 | 1012.0 |
| 20260509184510 | 13 | 171 | 6.4 | 14.5 | 0.13 | 0.13 | 0.13 | 64 | 1012.0 |
| 20260509184051 | 13 | 76 | 3.2 | 12.9 | 0.10 | 0.10 | 0.10 | 64 | 1011.8 |
| 20260509183556 | 13 | 101 | 3.2 | 12.9 | 0.10 | 0.10 | 0.10 | 63 | 1011.8 |
| 20260509183017 | 13 | 102 | 4.8 | 11.3 | 0.10 | 0.10 | 0.10 | 63 | 1011.7 |
| 20260509182553 | 13 | 207 | 3.2 | 9.7 | 0.10 | 0.10 | 0.10 | 63 | 1011.6 |
| 20260509182059 | 14 | 148 | 1.6 | 14.5 | 0.08 | 0.08 | 0.08 | 62 | 1011.5 |
| 20260509181501 | 14 | 137 | 6.4 | 17.7 | 0.08 | 0.08 | 0.08 | 62 | 1011.7 |
| 20260509181004 | 14 | 194 | 1.6 | 12.9 | 0.05 | 0.05 | 0.05 | 61 | 1011.9 |
| 20260509180514 | 14 | 121 | 6.4 | 12.9 | 0.03 | 0.03 | 0.03 | 61 | 1011.7 |
| 20260509180051 | 15 | 107 | 4.8 | 12.9 | 0.03 | 0.03 | 0.03 | 60 | 1011.8 |
| 20260509175558 | 15 | 95 | 3.2 | 12.9 | 0.03 | 0.03 | 0.03 | 60 | 1011.8 |
| 20260509175004 | 15 | 92 | 3.2 | 11.3 | 0.03 | 0.03 | 0.03 | 59 | 1011.5 |
| 20260509174518 | 15 | 163 | 4.8 | 19.3 | 0.00 | 0.00 | 0.00 | 58 | 1011.5 |
| 20260509174012 | 15 | 90 | 6.4 | 19.3 | 0.00 | 0.00 | 0.00 | 57 | 1011.8 |
| 20260509173553 | 15 | 49 | 4.8 | 12.9 | 0.00 | 0.00 | 0.00 | 56 | 1011.8 |
| 20260509173101 | 16 | 113 | 3.2 | 11.3 | 0.00 | 0.00 | 0.00 | 55 | 1011.7 |
| 20260509172521 | 16 | 118 | 3.2 | 12.9 | 0.00 | 0.00 | 0.00 | 54 | 1011.3 |
| 20260509172053 | 16 | 125 | 3.2 | 12.9 | 0.00 | 0.00 | 0.00 | 53 | 1011.5 |
| 20260509171559 | 16 | 245 | 1.6 | 12.9 | 0.00 | 0.00 | 0.00 | 52 | 1011.5 |
| 20260509171019 | 16 | 154 | 3.2 | 12.9 | 0.00 | 0.00 | 0.00 | 52 | 1011.6 |
| 20260509170555 | 17 | 126 | 1.6 | 12.9 | 0.00 | 0.00 | 0.00 | 52 | 1011.3 |
| 20260509170100 | 17 | 207 | 6.4 | 12.9 | 0.00 | 0.00 | 0.00 | 51 | 1011.4 |
| 20260509165505 | 17 | 173 | 1.6 | 14.5 | 0.00 | 0.00 | 0.00 | 51 | 1011.4 |
| 20260509165010 | 17 | 250 | 3.2 | 14.5 | 0.00 | 0.00 | 0.00 | 51 | 1011.5 |
| 20260509164556 | 17 | 128 | 3.2 | 14.5 | 0.00 | 0.00 | 0.00 | 51 | 1011.4 |
| 20260509164056 | 17 | 168 | 4.8 | 12.9 | 0.00 | 0.00 | 0.00 | 52 | 1011.5 |
| 20260509163600 | 16 | 150 | 4.8 | 12.9 | 0.00 | 0.00 | 0.00 | 52 | 1011.5 |
| 20260509163006 | 16 | 235 | 4.8 | 11.3 | 0.00 | 0.00 | 0.00 | 51 | 1011.8 |
| 20260509162511 | 17 | 121 | 1.6 | 9.7 | 0.00 | 0.00 | 0.00 | 51 | 1011.9 |
| 20260509162012 | 17 | 231 | 4.8 | 12.9 | 0.00 | 0.00 | 0.00 | 51 | 1012.1 |
| 20260509161557 | 17 | 118 | 4.8 | 12.9 | 0.00 | 0.00 | 0.00 | 50 | 1012.2 |
| 20260509161056 | 17 | 90 | 3.2 | 14.5 | 0.00 | 0.00 | 0.00 | 50 | 1012.3 |
| 20260509160502 | 17 | 211 | 8.0 | 14.5 | 0.00 | 0.00 | 0.00 | 49 | 1012.3 |
| 20260509160005 | 17 | 150 | 6.4 | 9.7 | 0.00 | 0.00 | 0.00 | 50 | 1012.4 |
| 20260509155551 | 17 | 17 | 3.2 | 14.5 | 0.00 | 0.00 | 0.00 | 49 | 1012.5 |
| 20260509155054 | 17 | 107 | 8.0 | 14.5 | 0.00 | 0.00 | 0.00 | 49 | 1012.4 |
| 20260509154603 | 17 | 219 | 4.8 | 16.1 | 0.00 | 0.00 | 0.00 | 49 | 1012.5 |
| 20260509154002 | 17 | 114 | 9.7 | 16.1 | 0.00 | 0.00 | 0.00 | 48 | 1012.5 |
| 20260509153505 | 17 | 128 | 1.6 | 14.5 | 0.00 | 0.00 | 0.00 | 48 | 1012.4 |
| 20260509153010 | 16 | 115 | 4.8 | 16.1 | 0.00 | 0.00 | 0.00 | 49 | 1012.5 |
| 20260509152551 | 16 | 103 | 4.8 | 16.1 | 0.00 | 0.00 | 0.00 | 49 | 1012.4 |
| 20260509152057 | 17 | 105 | 8.0 | 17.7 | 0.00 | 0.00 | 0.00 | 49 | 1012.5 |
| 20260509151600 | 17 | 130 | 11.3 | 17.7 | 0.00 | 0.00 | 0.00 | 47 | 1012.5 |
| 20260509151008 | 17 | 94 | 8.0 | 14.5 | 0.00 | 0.00 | 0.00 | 47 | 1012.4 |
| 20260509150509 | 17 | 123 | 3.2 | 12.9 | 0.00 | 0.00 | 0.00 | 47 | 1012.4 |
| 20260509150057 | 17 | 232 | 3.2 | 16.1 | 0.00 | 0.00 | 0.00 | 48 | 1012.4 |
| 20260509145558 | 17 | 138 | 6.4 | 16.1 | 0.00 | 0.00 | 0.00 | 47 | 1012.4 |
| 20260509145059 | 16 | 96 | 3.2 | 16.1 | 0.00 | 0.00 | 0.00 | 48 | 1012.4 |
| 20260509144504 | 16 | 217 | 3.2 | 16.1 | 0.00 | 0.00 | 0.00 | 48 | 1012.6 |
| 20260509144008 | 16 | 240 | 8.0 | 16.1 | 0.00 | 0.00 | 0.00 | 48 | 1012.6 |
| 20260509143511 | 16 | 242 | 8.0 | 14.5 | 0.00 | 0.00 | 0.00 | 47 | 1012.5 |
| 20260509143100 | 16 | 103 | 3.2 | 16.1 | 0.00 | 0.00 | 0.00 | 49 | 1012.5 |
| 20260509142558 | 16 | 187 | 3.2 | 16.1 | 0.00 | 0.00 | 0.00 | 47 | 1012.5 |
| 20260509142001 | 16 | 182 | 3.2 | 16.1 | 0.00 | 0.00 | 0.00 | 50 | 1012.4 |
| 20260509141504 | 16 | 225 | 4.8 | 16.1 | 0.00 | 0.00 | 0.00 | 50 | 1012.3 |
| 20260509141005 | 16 | 202 | 6.4 | 16.1 | 0.00 | 0.00 | 0.00 | 49 | 1012.5 |
| 20260509140558 | 16 | 227 | 6.4 | 16.1 | 0.00 | 0.00 | 0.00 | 49 | 1012.4 |
| 20260509140105 | 15 | 213 | 6.4 | 11.3 | 0.00 | 0.00 | 0.00 | 50 | 1012.7 |
| 20260509135559 | 15 | 176 | 1.6 | 16.1 | 0.00 | 0.00 | 0.00 | 51 | 1012.7 |
| 20260509135004 | 15 | 148 | 6.4 | 16.1 | 0.00 | 0.00 | 0.00 | 50 | 1012.6 |
| 20260509134508 | 15 | 183 | 6.4 | 12.9 | 0.00 | 0.00 | 0.00 | 51 | 1012.5 |
| 20260509134009 | 15 | 149 | 3.2 | 12.9 | 0.00 | 0.00 | 0.00 | 52 | 1012.5 |
| 20260509133557 | 15 | 139 | 4.8 | 12.9 | 0.00 | 0.00 | 0.00 | 52 | 1012.6 |
| 20260509133017 | 15 | 188 | 3.2 | 14.5 | 0.00 | 0.00 | 0.00 | 54 | 1012.7 |
| 20260509132554 | 15 | 182 | 4.8 | 14.5 | 0.00 | 0.00 | 0.00 | 54 | 1012.5 |
| 20260509132058 | 14 | 130 | 3.2 | 12.9 | 0.00 | 0.00 | 0.00 | 58 | 1012.7 |
| 20260509131501 | 13 | 104 | 3.2 | 11.3 | 0.00 | 0.00 | 0.00 | 62 | 1012.9 |
| 20260509131010 | 12 | 213 | 1.6 | 8.0 | 0.00 | 0.00 | 0.00 | 63 | 1012.8 |
| 20260509130552 | 12 | 92 | 1.6 | 8.0 | 0.00 | 0.00 | 0.00 | 64 | 1012.8 |
| 20260509130057 | 12 | 194 | 1.6 | 8.0 | 0.00 | 0.00 | 0.00 | 64 | 1012.9 |
| 20260509125501 | 12 | 42 | 1.6 | 9.7 | 0.00 | 0.00 | 0.00 | 65 | 1012.9 |
| 20260509125003 | 12 | 266 | 3.2 | 11.3 | 0.00 | 0.00 | 0.00 | 66 | 1013.1 |
| 20260509124506 | 12 | 244 | 3.2 | 11.3 | 0.00 | 0.00 | 0.00 | 66 | 1013.2 |
| 20260509124008 | 12 | 90 | 1.6 | 6.4 | 0.00 | 0.00 | 0.00 | 67 | 1012.9 |
| 20260509123552 | 11 | 102 | 3.2 | 6.4 | 0.00 | 0.00 | 0.00 | 67 | 1012.9 |
| 20260509123119 | 11 | 106 | 1.6 | 4.8 | 0.00 | 0.00 | 0.00 | 67 | 1012.9 |
| 20260509122600 | 11 | 113 | 0.0 | 4.8 | 0.00 | 0.00 | 0.00 | 67 | 1013.1 |
| 20260509122002 | 11 | 154 | 0.0 | 3.2 | 0.00 | 0.00 | 0.00 | 67 | 1013.1 |
| 20260509121514 | 11 | 154 | 0.0 | 12.9 | 0.00 | 0.00 | 0.00 | 67 | 1013.2 |
| 20260509121053 | 11 | 138 | 0.0 | 12.9 | 0.00 | 0.00 | 0.00 | 67 | 1013.2 |
| 20260509120557 | 11 | 121 | 0.0 | 4.8 | 0.00 | 0.00 | 0.00 | 67 | 1013.3 |
| 20260509120001 | 11 | 159 | 0.0 | 4.8 | 0.00 | 0.00 | 0.00 | 67 | 1013.4 |
| 20260509115502 | 11 | 113 | 1.6 | 4.8 | 0.00 | 0.00 | 0.00 | 67 | 1013.3 |
| 20260509115010 | 11 | 138 | 1.6 | 6.4 | 0.00 | 0.00 | 0.00 | 67 | 1013.2 |
| 20260509114551 | 11 | 98 | 1.6 | 6.4 | 0.00 | 0.00 | 0.00 | 67 | 1013.2 |
| 20260509114057 | 10 | 139 | 0.0 | 4.8 | 0.00 | 0.00 | 0.00 | 67 | 1013.2 |
| 20260509113519 | 10 | 101 | 0.0 | 3.2 | 0.00 | 0.00 | 0.00 | 67 | 1013.3 |
| 20260509113055 | 10 | 101 | 0.0 | 0.0 | 0.00 | 0.00 | 0.00 | 67 | 1013.3 |
| 20260509112557 | 10 | 101 | 0.0 | 0.0 | 0.00 | 0.00 | 0.00 | 67 | 1013.2 |
| 20260509112006 | 10 | 101 | 0.0 | 0.0 | 0.00 | 0.00 | 0.00 | 67 | 1013.4 |
| 20260509111509 | 10 | 101 | 0.0 | 0.0 | 0.00 | 0.00 | 0.00 | 67 | 1013.1 |
| 20260509111051 | 10 | 101 | 0.0 | 0.0 | 0.00 | 0.00 | 0.00 | 67 | 1013.0 |
| 20260509110556 | 10 | 101 | 0.0 | 0.0 | 0.00 | 0.00 | 0.00 | 67 | 1013.1 |
| 20260509110058 | 10 | 101 | 0.0 | 0.0 | 0.00 | 0.00 | 0.00 | 67 | 1013.1 |
| 20260509105503 | 10 | 101 | 0.0 | 0.0 | 0.00 | 0.00 | 0.00 | 67 | 1013.1 |
| 20260509105007 | 10 | 101 | 0.0 | 1.6 | 0.00 | 0.00 | 0.00 | 67 | 1013.0 |
| 20260509104510 | 10 | 101 | 0.0 | 3.2 | 0.00 | 0.00 | 0.00 | 67 | 1013.1 |
| 20260509104053 | 10 | 101 | 0.0 | 3.2 | 0.00 | 0.00 | 0.00 | 66 | 1012.9 |
| 20260509103556 | 10 | 101 | 0.0 | 3.2 | 0.00 | 0.00 | 0.00 | 66 | 1012.9 |
| 20260509103104 | 10 | 101 | 0.0 | 3.2 | 0.00 | 0.00 | 0.00 | 66 | 1012.9 |
| 20260509102507 | 10 | 94 | 0.0 | 1.6 | 0.00 | 0.00 | 0.00 | 66 | 1012.9 |
| 20260509102010 | 10 | 94 | 0.0 | 3.2 | 0.00 | 0.00 | 0.00 | 66 | 1012.7 |
| 20260509101557 | 10 | 94 | 0.0 | 3.2 | 0.00 | 0.00 | 0.00 | 66 | 1012.7 |
| 20260509101058 | 10 | 94 | 0.0 | 3.2 | 0.00 | 0.00 | 0.00 | 66 | 1012.7 |
| 20260509100559 | 10 | 94 | 0.0 | 3.2 | 0.00 | 0.00 | 0.00 | 66 | 1012.8 |
| 20260509100007 | 10 | 94 | 0.0 | 1.6 | 0.00 | 0.00 | 0.00 | 66 | 1012.7 |
| 20260509095508 | 10 | 94 | 0.0 | 4.8 | 0.00 | 0.00 | 0.00 | 66 | 1012.6 |
| 20260509095011 | 10 | 94 | 0.0 | 4.8 | 0.00 | 0.00 | 0.00 | 66 | 1012.5 |
| 20260509094554 | 10 | 94 | 1.6 | 6.4 | 0.00 | 0.00 | 0.00 | 66 | 1012.5 |
| 20260509094057 | 10 | 94 | 1.6 | 6.4 | 0.00 | 0.00 | 0.00 | 66 | 1012.4 |
| 20260509093520 | 10 | 114 | 0.0 | 4.8 | 0.00 | 0.00 | 0.00 | 66 | 1012.6 |
| 20260509093100 | 10 | 114 | 0.0 | 6.4 | 0.00 | 0.00 | 0.00 | 66 | 1012.6 |
| 20260509092501 | 10 | 114 | 1.6 | 6.4 | 0.00 | 0.00 | 0.00 | 66 | 1012.7 |
| 20260509092012 | 10 | 107 | 1.6 | 4.8 | 0.00 | 0.00 | 0.00 | 66 | 1012.5 |
| 20260509091509 | 10 | 82 | 0.0 | 4.8 | 0.00 | 0.00 | 0.00 | 66 | 1012.7 |
| 20260509091056 | 10 | 82 | 0.0 | 4.8 | 0.00 | 0.00 | 0.00 | 66 | 1012.6 |
| 20260509090557 | 10 | 89 | 1.6 | 4.8 | 0.00 | 0.00 | 0.00 | 66 | 1012.7 |
| 20260509090101 | 10 | 81 | 0.0 | 4.8 | 0.00 | 0.00 | 0.00 | 66 | 1012.7 |
| 20260509085503 | 10 | 81 | 1.6 | 3.2 | 0.00 | 0.00 | 0.00 | 66 | 1012.6 |
| 20260509085006 | 10 | 81 | 0.0 | 1.6 | 0.00 | 0.00 | 0.00 | 66 | 1012.5 |
| 20260509084508 | 10 | 81 | 0.0 | 0.0 | 0.00 | 0.00 | 0.00 | 66 | 1012.5 |
| 20260509084055 | 10 | 81 | 0.0 | 4.8 | 0.00 | 0.00 | 0.00 | 66 | 1012.6 |
| 20260509083518 | 10 | 81 | 0.0 | 4.8 | 0.00 | 0.00 | 0.00 | 66 | 1012.7 |
| 20260509083101 | 10 | 94 | 0.0 | 3.2 | 0.00 | 0.00 | 0.00 | 66 | 1012.8 |
| 20260509082516 | 10 | 94 | 1.6 | 9.7 | 0.00 | 0.00 | 0.00 | 66 | 1012.9 |
| 20260509082053 | 10 | 94 | 1.6 | 9.7 | 0.00 | 0.00 | 0.00 | 66 | 1012.9 |
| 20260509081558 | 10 | 79 | 1.6 | 6.4 | 0.00 | 0.00 | 0.00 | 66 | 1013.0 |
| 20260509081003 | 10 | 138 | 1.6 | 6.4 | 0.00 | 0.00 | 0.00 | 66 | 1013.1 |
| 20260509080503 | 10 | 142 | 1.6 | 9.7 | 0.00 | 0.00 | 0.00 | 66 | 1013.0 |
| 20260509080007 | 10 | 90 | 1.6 | 9.7 | 0.00 | 0.00 | 0.00 | 66 | 1013.0 |